Overview Statistics Trail Chart Weather Telemetry Raw packets
 

This is the latest recevied weather packets stored in our database for station/object KB1ZFK. If no packets are shown the sender has not sent any weather packets the latest 10 day(s).

<< 1 2 3 4 5 6 7 >>
Time Temp. Humidity Pressure Rain* Wind** Luminosity Snow
1788614679 18.33° C 88% 1010.3 hPa 0 mm - 125 W/m² -
1788614373 18.33° C 88% 1010.4 hPa 0 mm - 105 W/m² -
1788614079 18.33° C 88% 1010.4 hPa 0 mm - 103 W/m² -
1788613765 18.33° C 89% 1010.2 hPa 0 mm - 80 W/m² -
1788613464 18.33° C 88% 1010.3 hPa 0 mm - 85 W/m² -
1788613164 17.78° C 89% 1010.3 hPa 0 mm - 87 W/m² -
1788612859 17.78° C 90% 1010.1 hPa 0 mm - 98 W/m² -
1788612554 17.78° C 90% 1010.2 hPa 0 mm - 120 W/m² -
1788612251 17.78° C 91% 1010.3 hPa 0 mm - 126 W/m² -
1788611950 17.22° C 91% 1010.1 hPa 0 mm - 111 W/m² -
1788611647 17.22° C 92% 1009.9 hPa 0 mm - 73 W/m² -
1788611342 17.22° C 92% 1010 hPa 0 mm - 58 W/m² -
1788611041 17.22° C 92% 1009.8 hPa 0 mm - 38 W/m² -
1788610737 17.22° C 91% 1009.9 hPa 0 mm - 37 W/m² -
1788610433 17.22° C 92% 1009.8 hPa 0 mm - 44 W/m² -
1788610132 16.67° C 92% 1009.7 hPa 0 mm - 54 W/m² -
1788609826 16.67° C 92% 1009.8 hPa 0 mm - 43 W/m² -
1788609522 16.67° C 92% 1009.8 hPa 0 mm - 35 W/m² -
1788609221 16.67° C 92% 1009.9 hPa 0 mm - 27 W/m² -
1788608915 16.67° C 92% 1009.7 hPa 0 mm - 23 W/m² -
1788608614 16.67° C 92% 1009.5 hPa 0 mm - 21 W/m² -
1788608308 16.67° C 92% 1009.8 hPa 0 mm - 19 W/m² -
1788608004 16.67° C 92% 1009.7 hPa 0 mm - 26 W/m² -
1788607699 16.67° C 92% 1009.7 hPa 0 mm - 36 W/m² -
1788607393 16.67° C 93% 1009.6 hPa 0 mm - 35 W/m² -

* Rain latest hour (hover to see other rain measurements)
** Current wind speed in m/s (hover to see current wind gust speed)